Погода в Асти

Италия     44°53′55″N   8°12′39″E
темп.,
°C
ветер,
м/с
пор.,
м/с
влажн.,
%
обл.,
%
осадки,
мм/ч
давл.,
гПа
погр.,
м
17 мая, вт
вт1723:00+16ююз11847 0.1 101911
02:00+15юз11887 0.1 101913
05:00+15зюз119270 0.0 101811
08:00+18ссв118382 0.0 1019160
11:00+23св21596 0.0 1019654
14:00+26в215215 0.0 1017971
17:00+27вюв214829 0.0 10161052
20:00+24ююв11635 0.0 101511
18 мая, ср
ср1823:00+19ююв22785 0.0 101712
02:00+17зюз11825 0.0 101811
05:00+16ссз11885 0.1 101911
08:00+19с127657 0.1 1021150
11:00+23св33625 0.0 1021772
14:00+26всв435728 0.0 10211444
17:00+26всв445617 0.0 10201402
20:00+22всв48725 0.0 1021316
19 мая, чт
чт1923:00+19св51174100 0.0 1023382
02:00+17с5969100 0.0 1025313
05:00+16с486988 0.0 1026272
08:00+17ссв367110 0.0 1027376
11:00+21св345766 0.0 1027889
14:00+24всв335261 0.0 10261121
17:00+25всв335380 0.0 10241224
20:00+22всв227036 0.0 102433
20 мая, пт
пт2023:00+18в018094 0.0 102611
02:00+17сз118443 0.0 102611
05:00+16с11885 0.0 102611
08:00+19ссв11775 0.0 1027164
11:00+24в11585 0.0 1026775
14:00+26вюв22515 0.0 10241195
17:00+27юв235214 0.0 10211432
20:00+22ююв477199 0.0 1021191
21 мая, сб
сб2123:00+17ююв2379100 0.0 102144
02:00+16ююз118621 0.0 102111
05:00+15ююз11915 0.0 102011
08:00+19ююз11805 0.0 1020157
11:00+25ю11630 0.0 1018690
14:00+28юв22555 0.0 10161058
17:00+29юв224940 0.0 10141168
20:00+22ююв35715 0.0 1013120